Tel Aviv, Israel

2:40 AM IST on February 17, 2019 (GMT +0200)
Ben Gurion

Weather History for LLBG - February, 2019

Change the Weather History Date:

Monday, February 11, 2019

  Actual Average Record
Temperature  
Mean Temperature 56 °F -  
Max Temperature 62 °F 64 °F 73 °F (2018)
Min Temperature 50 °F 49 °F 39 °F (1997)
Degree Days  
Heating Degree Days 9    
Growing Degree Days 6 (Base 50)    
Moisture  
Dew Point 48 °F    
Average Humidity 76    
Maximum Humidity 88    
Minimum Humidity 48    
Precipitation  
Precipitation 0.01 in - - ()
Sea Level Pressure  
Sea Level Pressure 30.16 in    
Wind  
Wind Speed 7 mph ()    
Max Wind Speed 12 mph    
Max Gust Speed -    
Visibility 6.0 miles    
Events Rain    
Averages and records for this station are not official NWS values.
T = Trace of Precipitation, MM = Missing Value Source: Averaged Metar Reports

Daily Weather History Graph

Daily Weather History Graph

Search for Another Location

Airport or City:

Astronomy

Feb. 11, 2019 Rise Set
Actual Time 6:26 AM IST 5:22 PM IST
Civil Twilight 6:01 AM IST 5:48 PM IST
Nautical Twilight 5:32 AM IST 6:16 PM IST
Astronomical Twilight 5:04 AM IST 6:45 PM IST
Moon 10:08 AM IST (2/11) 11:17 PM IST (2/11)
Length of Visible Light 11h 46m
Length of Day
10h 56m
Waxing Crescent, 35% of the Moon is Illuminated
Feb 11
Waxing Crescent
Feb 13
First Quarter
Feb 19
Full
Feb 26
Last Quarter
Mar 6
New

Hourly Weather History & Observations

Time (IST) Temp. Dew Point Humidity Pressure Visibility Wind Dir Wind Speed Gust Speed Precip Events Conditions
12:20 AM 53.6 °F 48.2 °F 82% 30.12 in 6.2 mi SSE 5.8 mph - N/A   Scattered Clouds
12:50 AM 51.8 °F 48.2 °F 88% 30.09 in 6.2 mi SE 8.1 mph - N/A   Scattered Clouds
1:20 AM 51.8 °F 48.2 °F 88% 30.09 in 6.2 mi SSE 9.2 mph - N/A   Mostly Cloudy
1:50 AM 51.8 °F 48.2 °F 88% 30.12 in 6.2 mi SSE 8.1 mph - N/A   Scattered Clouds
2:00 AM 52 °F 48 °F 82% 30.13 in 6 mi SSE 6.7 mph - -   Partly Cloudy
2:20 AM 51.8 °F 48.2 °F 88% 30.09 in 6.2 mi SSE 5.8 mph - N/A   Scattered Clouds
2:50 AM 51.8 °F 48.2 °F 88% 30.09 in 6.2 mi ESE 6.9 mph - N/A   Partly Cloudy
3:20 AM 51.8 °F 48.2 °F 88% 30.09 in - SE 9.2 mph - N/A   Clear
3:50 AM 51.8 °F 48.2 °F 88% 30.09 in 6.2 mi SSE 9.2 mph - N/A   Partly Cloudy
4:20 AM 51.8 °F 48.2 °F 88% 30.09 in 6.2 mi South 10.4 mph - N/A   Partly Cloudy
4:50 AM 51.8 °F 48.2 °F 88% 30.12 in 4.3 mi South 6.9 mph - N/A Rain Light Rain
5:00 AM 51 °F 48 °F 87% 30.14 in 4 mi NE 4.5 mph - - Rain Light Rain
5:20 AM 51.8 °F 48.2 °F 88% 30.12 in 5.0 mi ESE 6.9 mph - N/A Rain Light Rain
5:50 AM 51.8 °F 48.2 °F 88% 30.12 in 6.2 mi SSE 10.4 mph - N/A   Partly Cloudy
6:20 AM 51.8 °F 48.2 °F 88% 30.12 in 6.2 mi South 9.2 mph - N/A   Partly Cloudy
6:50 AM 51.8 °F 48.2 °F 88% 30.15 in 6.2 mi SSE 10.4 mph - N/A   Partly Cloudy
7:20 AM 51.8 °F 48.2 °F 88% 30.15 in 6.2 mi SSE 9.2 mph - N/A   Partly Cloudy
7:50 AM 53.6 °F 50.0 °F 88% 30.15 in 6.2 mi SE 6.9 mph - N/A   Partly Cloudy
8:00 AM 54 °F 49 °F 79% 30.18 in 6 mi South 6.7 mph - -   Partly Cloudy
8:20 AM 53.6 °F 50.0 °F 88% 30.18 in 6.2 mi South 9.2 mph - N/A Rain Light Rain
8:50 AM 53.6 °F 50.0 °F 88% 30.18 in 5.0 mi South 5.8 mph - N/A Rain Light Rain
9:20 AM 55.4 °F 50.0 °F 82% 30.18 in 6.2 mi South 6.9 mph - N/A   Scattered Clouds
9:50 AM 55.4 °F 50.0 °F 82% 30.18 in 6.2 mi South 8.1 mph - N/A   Partly Cloudy
10:20 AM 57.2 °F 50.0 °F 77% 30.18 in 6.2 mi South 5.8 mph - N/A   Partly Cloudy
11:00 AM 58 °F 49 °F 63% 30.21 in 6 mi South 6.7 mph - -   Partly Cloudy
11:20 AM 60.8 °F 48.2 °F 63% 30.18 in 6.2 mi SSW 5.8 mph - N/A   Partly Cloudy
12:20 PM 62.6 °F 46.4 °F 55% 30.15 in 6.2 mi WSW 5.8 mph - N/A   Partly Cloudy
12:50 PM 62.6 °F 42.8 °F 48% 30.15 in 6.2 mi WSW 8.1 mph - N/A   Partly Cloudy
1:20 PM 62.6 °F 44.6 °F 52% 30.15 in 6.2 mi WNW 10.4 mph - N/A   Partly Cloudy
1:50 PM 62.6 °F 44.6 °F 52% 30.15 in 6.2 mi WNW 8.1 mph - N/A   Partly Cloudy
2:20 PM 62.6 °F 46.4 °F 55% 30.15 in 6.2 mi WNW 8.1 mph - N/A   Partly Cloudy
2:50 PM 62.6 °F 46.4 °F 55% 30.15 in 6.2 mi WNW 10.4 mph - N/A   Partly Cloudy
3:20 PM 62.6 °F 46.4 °F 55% 30.15 in 6.2 mi WNW 10.4 mph - N/A   Partly Cloudy
3:50 PM 60.8 °F 46.4 °F 59% 30.15 in 6.2 mi West 11.5 mph - N/A   Partly Cloudy
4:20 PM 60.8 °F 46.4 °F 59% 30.18 in 6.2 mi WNW 10.4 mph - N/A   Partly Cloudy
4:50 PM 60.8 °F 46.4 °F 59% 30.18 in 6.2 mi WNW 9.2 mph - N/A   Partly Cloudy
5:20 PM 59.0 °F 48.2 °F 67% 30.18 in 6.2 mi West 6.9 mph - N/A   Partly Cloudy
5:50 PM 59.0 °F 50.0 °F 72% 30.18 in 6.2 mi West 5.8 mph - N/A   Partly Cloudy
6:20 PM 59.0 °F 48.2 °F 67% 30.21 in 6.2 mi West 4.6 mph - N/A   Partly Cloudy
6:50 PM 59.0 °F 48.2 °F 67% 30.21 in 6.2 mi Variable 1.2 mph - N/A   Partly Cloudy
7:20 PM 57.2 °F 50.0 °F 77% 30.21 in 6.2 mi Variable 1.2 mph - N/A   Scattered Clouds
7:50 PM 57.2 °F 48.2 °F 72% 30.21 in 6.2 mi Variable 3.5 mph - N/A   Partly Cloudy
8:00 PM 57 °F 48 °F 65% 30.22 in 6 mi Calm Calm - -   Scattered Clouds
8:20 PM 55.4 °F 50.0 °F 82% 30.21 in 6.2 mi Variable 3.5 mph - N/A   Partly Cloudy
8:50 PM 55.4 °F 50.0 °F 82% 30.21 in 6.2 mi SE 5.8 mph - N/A   Partly Cloudy
9:20 PM 55.4 °F 50.0 °F 82% 30.21 in - ESE 5.8 mph - N/A   Clear
9:50 PM 53.6 °F 48.2 °F 82% 30.21 in - ESE 5.8 mph - N/A   Clear
10:20 PM 53.6 °F 48.2 °F 82% 30.21 in - ESE 5.8 mph - N/A   Clear
10:50 PM 53.6 °F 48.2 °F 82% 30.21 in 6.2 mi ESE 5.8 mph - N/A   Partly Cloudy
11:00 PM 53 °F 48 °F 76% 30.23 in 6 mi SE 4.5 mph - -   Scattered Clouds
11:20 PM 51.8 °F 48.2 °F 88% 30.21 in 6.2 mi Variable 3.5 mph - N/A   Partly Cloudy
11:50 PM 51.8 °F 48.2 °F 88% 30.21 in 6.2 mi Variable 3.5 mph - N/A   Partly Cloudy